FW5407 Weather Reports


Display with metric or nautical units.
time (UTC)temp
F
wind
direction
speed
MPH
gust
MPH
rain 1hr
in
rain 24hr
in
rain mn
in
humidity
%
barometer
mb
20260503203529 69 117 0.0 6.0 0.00 0.00 0.00 53 1010.0
20260503203031 69 187 2.0 6.0 0.00 0.00 0.00 54 1010.2
20260503202528 69 125 1.0 6.0 0.00 0.00 0.00 53 1010.3
20260503202028 69 113 1.0 6.0 0.00 0.00 0.00 52 1010.3
20260503201529 70 214 1.0 5.0 0.00 0.00 0.00 51 1010.4
20260503201027 70 110 1.0 4.0 0.00 0.00 0.00 53 1010.3
20260503200526 69 139 0.0 7.0 0.00 0.00 0.00 54 1010.4
20260503195526 69 71 0.0 7.0 0.00 0.00 0.00 53 1010.4
20260503195026 69 122 1.0 7.0 0.00 0.00 0.00 53 1010.5
20260503194526 69 107 1.0 5.0 0.00 0.00 0.00 52 1010.5
20260503194028 69 102 2.0 5.0 0.00 0.00 0.00 54 1010.5
20260503193526 69 131 1.0 6.0 0.00 0.00 0.00 54 1010.5
20260503193033 68 118 1.0 6.0 0.00 0.00 0.00 57 1010.6
20260503192525 68 112 2.0 7.0 0.00 0.00 0.00 55 1010.6
20260503192025 69 186 2.0 5.0 0.00 0.00 0.00 53 1010.7
20260503191524 69 108 1.0 7.0 0.00 0.00 0.00 55 1010.7
20260503191024 69 155 3.0 7.0 0.00 0.00 0.00 51 1010.7
20260503190525 69 94 1.0 5.0 0.00 0.00 0.00 52 1010.7
20260503185526 69 113 1.0 8.0 0.00 0.00 0.00 54 1010.8
20260503185025 69 119 0.0 8.0 0.00 0.00 0.00 55 1010.8
20260503184534 68 118 0.0 5.0 0.00 0.00 0.00 54 1010.9
20260503184023 67 95 0.0 5.0 0.00 0.00 0.00 55 1011.0
20260503183521 67 122 1.0 4.0 0.00 0.00 0.00 58 1011.1
20260503183020 66 226 1.0 4.0 0.00 0.00 0.00 58 1011.1
20260503182519 66 116 0.0 7.0 0.00 0.00 0.00 56 1011.2
20260503182018 66 84 1.0 5.0 0.00 0.00 0.00 59 1011.2
20260503181517 65 96 0.0 4.0 0.00 0.00 0.00 58 1011.3
20260503181016 63 132 0.0 5.0 0.00 0.00 0.00 63 1011.3
20260503180517 63 155 0.0 5.0 0.00 0.00 0.00 63 1011.2
20260503175514 63 142 0.0 5.0 0.00 0.00 0.00 69 1011.3
20260503175014 63 41 0.0 6.0 0.00 0.00 0.00 67 1011.4
20260503174514 63 145 1.0 6.0 0.00 0.00 0.00 67 1011.4
20260503174014 63 125 1.0 5.0 0.00 0.00 0.00 69 1011.4
20260503173514 63 129 1.0 6.0 0.00 0.00 0.00 70 1011.4
20260503173015 63 139 1.0 6.0 0.00 0.00 0.00 68 1011.5
20260503172514 63 150 1.0 6.0 0.00 0.00 0.00 66 1011.4
20260503172013 63 145 3.0 8.0 0.00 0.00 0.00 65 1011.5
20260503171513 63 134 2.0 8.0 0.00 0.00 0.00 65 1011.6
20260503171015 63 140 1.0 5.0 0.00 0.00 0.00 66 1011.7
20260503170514 63 173 2.0 6.0 0.00 0.00 0.00 67 1011.7
20260503151011 59 124 1.0 3.0 0.00 0.00 0.00 78 1012.0
20260503150508 57 122 1.0 6.0 0.00 0.00 0.00 80 1012.1
20260503131052 0 0.0 0.0 0.00 0.00 0.00 1011.5
20260503130551 0 0.0 0.0 0.00 0.00 0.00 1011.5
20260503110539 53 68 0.0 0.0 0.00 0.00 0.00 86 1011.8
20260503081530 54 158 0.0 1.0 0.00 0.00 0.00 78 1011.7
20260503081031 54 158 0.0 1.0 0.00 0.00 0.00 78 1011.6
20260503080530 54 277 0.0 1.0 0.00 0.00 0.00 78 1011.7
20260503072534 54 279 0.0 0.0 0.00 0.00 0.00 78 1011.5
20260503072034 55 278 0.0 0.0 0.00 0.00 0.00 79 1011.5
20260503071537 55 278 0.0 0.0 0.00 0.00 0.00 76 1011.5
20260503071031 55 278 0.0 0.0 0.00 0.00 0.00 76 1011.5
20260503070530 55 278 0.0 0.0 0.00 0.00 0.00 75 1011.5
20260503055100 57 38 0.0 0.0 0.00 0.00 0.00 69 1011.2
20260503054607 57 39 0.0 0.0 0.00 0.00 0.00 68 1011.2
20260503054058 57 39 0.0 0.0 0.00 0.00 0.00 67 1011.3
20260503053559 58 38 0.0 0.0 0.00 0.00 0.00 67 1011.3
20260503053057 58 38 0.0 0.0 0.00 0.00 0.00 66 1011.3
20260503052556 58 38 0.0 0.0 0.00 0.00 0.00 66 1011.3
20260503052058 58 39 0.0 2.0 0.00 0.00 0.00 65 1011.2
20260503051559 58 40 0.0 2.0 0.00 0.00 0.00 65 1011.2
20260503051056 58 46 0.0 2.0 0.00 0.00 0.00 64 1011.3
20260503050558 58 32 0.0 3.0 0.00 0.00 0.00 65 1011.2
20260503045520 58 30 0.0 2.0 0.00 0.00 0.00 66 1011.2
20260503045021 59 70 0.0 4.0 0.00 0.00 0.00 65 1011.2
20260503044521 59 302 0.0 5.0 0.00 0.00 0.00 65 1011.2
20260503044019 59 67 0.0 3.0 0.00 0.00 0.00 64 1011.2
20260503043519 59 82 1.0 3.0 0.00 0.00 0.00 63 1011.1
20260503043018 59 41 0.0 2.0 0.00 0.00 0.00 63 1011.1
20260503042518 59 359 0.0 3.0 0.00 0.00 0.00 64 1011.1
20260503042019 59 135 0.0 3.0 0.00 0.00 0.00 64 1011.0
20260503041517 59 34 0.0 0.0 0.00 0.00 0.00 64 1011.0
20260503041017 59 28 0.0 0.0 0.00 0.00 0.00 66 1011.0
20260503040515 58 41 0.0 0.0 0.00 0.00 0.00 66 1011.0
20260503040017 59 328 0.0 3.0 0.00 0.00 0.00 66 1010.9
20260503035515 59 75 0.0 3.0 0.00 0.00 0.00 70 1010.8
20260503035016 59 335 0.0 1.0 0.00 0.00 0.00 68 1010.7
20260503034533 59 78 0.0 4.0 0.00 0.00 0.00 69 1010.7
20260503034020 59 98 0.0 2.0 0.00 0.00 0.00 71 1010.6
20260503033514 59 57 0.0 1.0 0.00 0.00 0.00 70 1010.5
20260503032512 60 170 0.0 3.0 0.00 0.00 0.00 68 1010.5
20260503032011 60 276 0.0 3.0 0.00 0.00 0.00 67 1010.5
20260503031510 60 63 0.0 2.0 0.00 0.00 0.00 68 1010.5
20260503031011 60 149 0.0 8.0 0.00 0.00 0.00 68 1010.4
20260503030510 60 79 0.0 0.0 0.00 0.00 0.00 68 1010.4
20260503030010 60 58 0.0 4.0 0.00 0.00 0.00 67 1010.3
20260503025509 61 113 0.0 4.0 0.00 0.00 0.00 67 1010.3
20260503025008 60 116 1.0 4.0 0.00 0.00 0.00 65 1010.4
20260503024507 61 36 0.0 3.0 0.00 0.00 0.00 70 1010.4
20260503024007 61 84 0.0 4.0 0.00 0.00 0.00 65 1010.4
20260503023505 62 311 0.0 1.0 0.00 0.00 0.00 64 1010.4
20260503022512 62 208 0.0 4.0 0.00 0.00 0.00 68 1010.5
20260503022011 62 285 0.0 2.0 0.00 0.00 0.00 66 1010.5
20260503021510 63 104 0.0 1.0 0.00 0.00 0.00 62 1010.5
20260503021011 63 115 0.0 0.0 0.00 0.00 0.00 62 1010.5
20260503020510 63 101 0.0 2.0 0.00 0.00 0.00 61 1010.5
20260503020010 63 117 0.0 5.0 0.00 0.00 0.00 61 1010.6
20260503015508 63 101 0.0 5.0 0.00 0.00 0.00 62 1010.6
20260503015007 63 65 0.0 7.0 0.00 0.00 0.00 64 1010.7
20260503014514 63 149 0.0 6.0 0.00 0.00 0.00 63 1010.6
20260503014007 63 95 1.0 4.0 0.00 0.00 0.00 61 1010.6
20260503013505 64 136 0.0 3.0 0.00 0.00 0.00 61 1010.7
20260503012538 64 115 0.0 4.0 0.00 0.00 0.00 62 1010.8
20260503012038 64 128 0.0 4.0 0.00 0.00 0.00 63 1010.9
20260503011537 65 122 0.0 3.0 0.00 0.00 0.00 60 1010.9
20260503011036 65 221 0.0 6.0 0.00 0.00 0.00 60 1010.9
20260503010539 66 188 0.0 6.0 0.00 0.00 0.00 58 1010.9
20260503010040 66 170 2.0 6.0 0.00 0.00 0.00 59 1010.9
20260503005539 66 122 1.0 6.0 0.00 0.00 0.00 57 1011.0
20260503005037 66 44 1.0 6.0 0.00 0.00 0.00 58 1011.0
20260503004535 66 326 1.0 7.0 0.00 0.00 0.00 58 1011.0
20260503004035 66 136 0.0 8.0 0.00 0.00 0.00 57 1011.1
20260503003533 67 128 3.0 13.0 0.00 0.00 0.00 54 1011.0
20260503002525 67 108 0.0 8.0 0.00 0.00 0.00 53 1011.1
20260503002029 67 136 1.0 8.0 0.00 0.00 0.00 52 1011.1
20260503001525 67 77 0.0 5.0 0.00 0.00 0.00 52 1011.2
20260503001025 67 115 1.0 7.0 0.00 0.00 0.00 54 1011.2
20260503000525 67 293 1.0 6.0 0.00 0.00 0.00 52 1011.2
20260503000031 67 86 0.0 5.0 0.00 0.00 0.00 55 1011.2
20260502235524 67 73 0.0 6.0 0.00 0.00 0.00 54 1011.3
20260502235022 67 108 2.0 9.0 0.00 0.00 0.00 55 1011.3
20260502234522 67 49 3.0 8.0 0.00 0.00 0.00 55 1011.4
20260502234022 67 200 1.0 7.0 0.00 0.00 0.00 56 1011.5
20260502233522 67 135 0.0 8.0 0.00 0.00 0.00 56 1011.6
20260502232520 66 116 3.0 7.0 0.00 0.00 0.00 55 1011.6
20260502232019 67 91 2.0 8.0 0.00 0.00 0.00 54 1011.6
20260502231522 67 131 3.0 8.0 0.00 0.00 0.00 53 1011.7
20260502231021 67 135 3.0 9.0 0.00 0.00 0.00 55 1011.7
20260502230520 67 125 3.0 9.0 0.00 0.00 0.00 54 1011.8
20260502230019 67 99 2.0 7.0 0.00 0.00 0.00 55 1011.7
20260502225518 67 85 2.0 8.0 0.00 0.00 0.00 55 1011.9
20260502225019 67 229 2.0 8.0 0.00 0.00 0.00 55 1012.0
20260502224518 67 105 0.0 10.0 0.00 0.00 0.00 54 1012.0
20260502224018 67 86 0.0 9.0 0.00 0.00 0.00 55 1012.0
20260502223518 67 318 3.0 10.0 0.00 0.00 0.00 53 1012.1
20260502222515 67 228 2.0 5.0 0.00 0.00 0.00 56 1012.3
20260502222014 66 136 0.0 0.0 0.00 0.00 0.00 58 1012.4
20260502221513 66 120 0.0 7.0 0.00 0.00 0.00 57 1012.5
20260502221013 66 113 0.0 7.0 0.00 0.00 0.00 57 1012.5
20260502220513 66 158 2.0 6.0 0.00 0.00 0.00 59 1012.6
20260502220013 66 205 2.0 6.0 0.00 0.00 0.00 59 1012.6
20260502215512 66 139 3.0 7.0 0.00 0.00 0.00 59 1012.7
20260502215013 65 140 0.0 7.0 0.00 0.00 0.00 59 1012.8
20260502214518 66 145 3.0 7.0 0.00 0.00 0.00 58 1012.9
20260502214012 66 106 0.0 4.0 0.00 0.00 0.00 60 1012.9
20260502213511 65 98 0.0 8.0 0.00 0.00 0.00 63 1013.0
20260502212515 65 114 3.0 9.0 0.00 0.00 0.00 60 1013.1
20260502212020 65 118 2.0 5.0 0.00 0.00 0.00 62 1013.2
20260502211527 65 125 0.0 5.0 0.00 0.00 0.00 60 1013.3
20260502211016 65 160 1.0 6.0 0.00 0.00 0.00 62 1013.3
20260502210514 66 128 1.0 6.0 0.00 0.00 0.00 61 1013.3
20260502210014 66 102 0.0 7.0 0.00 0.00 0.00 61 1013.4
20260502205514 65 105 1.0 7.0 0.00 0.00 0.00 60 1013.4
20260502205014 66 155 2.0 7.0 0.00 0.00 0.00 60 1013.4
20260502204514 66 71 0.0 5.0 0.00 0.00 0.00 61 1013.5